Content
SEND FEEDBACK

Daily
Averages
Monthly
Summary
United States of America

TAMUNING, GUAM


Home > North America > United States > Guam
Elevation: 76 meters     Latitude: 13 29N     Longitude: 144 47E

WEATHER
 
SELECT A DAY
Number of Records: 350,199;   Date Range: 1/1/95 - 9/29/14
 
SHARE

PRINT THIS DATA

[ ← Previous Day ]
WEATHER ALMANAC - 1 AUGUST, 2013
[ Next Day → ]
[ °F ]   °C
Weather ElementAverageHighLow
Temperature26.1 °C28.8 °C (3:55 pm)24 °C (5:50 am)
Dewpoint23.9 °C25 °C (8:02 am)21.7 °C (5:55 am)
Humidity87.6 %100 % (8:02 am)75 % (3:55 pm)
Barometer1010.2 hPa1011.9 hPa (8:23 am)1007.5 hPa (1:55 pm)
Wind Speed17.4 km/h27.8 km/h (8:28 am)
Wind Gust35.2 km/h (8:23 am)
Weather ElementAverage
Visibility13.8 km
Wind DirectionESE (117 °)

Weather ElementTotal
Precipitation5.59 mm
Cooling Degree Days8.1 (Base 18.3)
Growing Degree Days16.4 (Base 10)
Averaged from 82 records on 1 August, 2013
WEATHER CONDITIONS BREAKOUT
WIND DIRECTION BREAKOUT
WEATHER BY HOUR - 1 AUGUST, 2013
[ °F ]   °C
Local TimeTemperatureDewpointHumidityBarometerVisibilityWind DirectionWind SpeedGust SpeedPrecipitationEventsConditions
1:55 AM26.9 °C23.8 °C83 %1008.8 hPa16.1 kmEast (80°)14.8 km/hPartly Cloudy
2:55 AM26.9 °C23.9 °C84 %1008.5 hPa16.1 kmENE (70°)13 km/hScattered Clouds
3:17 AM27 °C24 °C84 %1008.5 hPa16.1 kmEast (80°)18.5 km/hMostly Cloudy
3:22 AM27 °C24 °C84 %1008.5 hPa16.1 kmEast (80°)16.7 km/hScattered Clouds
3:32 AM27 °C24 °C84 %1008.5 hPa16.1 kmENE (70°)18.5 km/hMostly Cloudy
3:39 AM27 °C24 °C84 %1008.8 hPa16.1 kmEast (80°)18.5 km/hScattered Clouds
3:50 AM27 °C24 °C84 %1008.8 hPa16.1 kmEast (90°)18.5 km/hMostly Cloudy
3:55 AM27.3 °C24.3 °C84 %1008.8 hPa16.1 kmEast (90°)20.4 km/hMostly Cloudy
4:00 AM27 °C24 °C84 %1008.8 hPa16.1 kmEast (90°)18.5 km/hScattered Clouds
4:44 AM27 °C24 °C84 %1009.1 hPa16.1 kmENE (70°)14.8 km/hMostly Cloudy
4:46 AM27 °C24 °C84 %1009.1 hPa16.1 kmEast (80°)16.7 km/hMostly Cloudy
4:51 AM27 °C24 °C84 %1009.1 hPa16.1 kmEast (80°)16.7 km/hMostly Cloudy
4:53 AM27 °C24 °C84 %1009.1 hPa16.1 kmEast (90°)14.8 km/hScattered Clouds
4:55 AM27.2 °C24 °C83 %1009.1 hPa16.1 kmEast (90°)14.8 km/hScattered Clouds
4:59 AM27 °C24 °C84 %1009.1 hPa16.1 kmEast (90°)11.1 km/hMostly Cloudy
5:14 AM27 °C24 °C84 %1009.5 hPa16.1 kmEast (80°)14.8 km/hMostly Cloudy
5:17 AM27 °C24 °C84 %1009.5 hPa16.1 kmEast (90°)14.8 km/hMostly Cloudy
5:32 AM27 °C23 °C79 %1009.5 hPa14.5 kmEast (80°)11.1 km/hRainLight Rain
5:50 AM24 °C22 °C89 %1009.5 hPa16.1 kmENE (60°)7.4 km/hMostly Cloudy
5:55 AM24.5 °C21.7 °C84 %1009.5 hPa16.1 kmENE (70°)7.4 km/h1.02 mmScattered Clouds
6:21 AM26 °C23 °C83 %1009.8 hPa6.4 kmSSE (160°)16.7 km/hRainHeavy Rain
6:22 AM26 °C24 °C89 %1009.8 hPa4 kmSouth (180°)13 km/hRainHeavy Rain
6:23 AM26 °C24 °C89 %1010.2 hPa3.2 kmSouth (190°)13 km/hRainRain
6:26 AM25 °C24 °C94 %1010.2 hPa2.9 kmSE (140°)16.7 km/hRainLight Rain
6:28 AM25 °C24 °C94 %1010.2 hPa2.4 kmSSE (150°)22.2 km/h29.6 km/hRainLight Rain
6:29 AM25 °C24 °C94 %1010.2 hPa1.9 kmSSE (150°)25.9 km/hRainLight Rain
6:31 AM25 °C24 °C94 %1010.2 hPa2.4 kmSSE (160°)25.9 km/hRainHeavy Rain
6:32 AM25 °C24 °C94 %1010.2 hPa2.9 kmSSE (160°)24.1 km/hRainHeavy Rain
6:34 AM25 °C24 °C94 %1010.2 hPa3.2 kmSSE (160°)24.1 km/hRainLight Rain
6:35 AM25 °C24 °C94 %1010.2 hPa3.2 kmSouth (170°)25.9 km/hRainLight Rain
6:38 AM25 °C24 °C94 %1010.5 hPa4 kmSouth (170°)20.4 km/hRainLight Rain
6:39 AM25 °C24 °C94 %1010.5 hPa4.8 kmSouth (170°)22.2 km/hRainLight Rain
6:46 AM25 °C24 °C94 %1010.5 hPa14.5 kmSouth (170°)22.2 km/hMostly Cloudy
6:47 AM25 °C24 °C94 %1010.5 hPa14.5 kmSouth (170°)22.2 km/hMostly Cloudy
6:48 AM25 °C24 °C94 %1010.5 hPa16.1 kmSouth (170°)20.4 km/hMostly Cloudy
6:52 AM25 °C24 °C94 %1010.5 hPa16.1 kmSouth (170°)18.5 km/hMostly Cloudy
6:55 AM24.8 °C24 °C95 %1010.5 hPa16.1 kmSSE (160°)18.5 km/h4.06 mmMostly Cloudy
6:57 AM25 °C24 °C94 %1010.5 hPa16.1 kmSouth (170°)18.5 km/hMostly Cloudy
6:58 AM25 °C24 °C94 %1010.5 hPa16.1 kmSouth (170°)16.7 km/hMostly Cloudy
7:00 AM25 °C24 °C94 %1010.5 hPa16.1 kmSouth (180°)16.7 km/hScattered Clouds
7:28 AM25 °C24 °C94 %1011.2 hPa16.1 kmSSE (160°)9.3 km/hRainLight Rain
7:55 AM25.5 °C24.7 °C95 %1011.2 hPa16.1 kmESE (120°)14.8 km/h0.25 mmRainLight Rain
8:02 AM25 °C25 °C100 %1011.5 hPa12.9 kmESE (120°)14.8 km/hPartly Cloudy
8:05 AM25 °C25 °C100 %1011.5 hPa11.3 kmSE (130°)18.5 km/hPartly Cloudy
8:06 AM25 °C24 °C94 %1011.5 hPa9.7 kmSE (130°)18.5 km/hRainLight Rain
8:13 AM25 °C24 °C94 %1011.5 hPa11.3 kmSE (130°)18.5 km/hScattered Clouds
8:23 AM25 °C24 °C94 %1011.9 hPa16.1 kmESE (110°)25.9 km/h35.2 km/hRainLight Rain
8:28 AM25 °C24 °C94 %1011.9 hPa14.5 kmEast (80°)27.8 km/h35.2 km/hRainLight Rain
8:35 AM24 °C23 °C94 %1011.2 hPa16.1 kmEast (90°)11.1 km/h35.2 km/hMostly Cloudy
8:39 AM24 °C23 °C94 %1011.2 hPa16.1 kmEast (80°)14.8 km/hScattered Clouds
8:51 AM24 °C23 °C94 %1011.5 hPa16.1 kmEast (90°)11.1 km/hRainLight Rain
8:55 AM24.1 °C22.6 °C91 %1011.5 hPa14.5 kmSE (140°)7.4 km/h0.25 mmRainLight Rain
9:03 AM24 °C23 °C94 %1011.5 hPa16.1 kmSouth (190°)7.4 km/hClear
9:55 AM26.1 °C23.7 °C87 %1011.5 hPa16.1 kmESE (110°)11.1 km/h0 mmClear
10:55 AM26.8 °C23.9 °C84 %1011.2 hPa16.1 kmEast (80°)20.4 km/hMostly Cloudy
10:56 AM27 °C24 °C84 %1011.2 hPa16.1 kmEast (90°)22.2 km/hMostly Cloudy
10:58 AM27 °C24 °C84 %1011.2 hPa16.1 kmEast (80°)22.2 km/hMostly Cloudy
11:00 AM27 °C24 °C84 %1011.2 hPa16.1 kmENE (70°)22.2 km/hMostly Cloudy
11:06 AM27 °C24 °C84 %1011.2 hPa16.1 kmENE (70°)20.4 km/hMostly Cloudy
11:49 AM26 °C23 °C83 %1009.8 hPa16.1 kmEast (100°)18.5 km/hScattered Clouds
11:55 AM26.1 °C23.7 °C87 %1009.8 hPa16.1 kmEast (80°)22.2 km/hScattered Clouds
12:55 PM26.9 °C24 °C84 %1009.1 hPa16.1 kmNE (50°)14.8 km/hPartly Cloudy
1:30 PM28 °C24 °C79 %1008.5 hPa16.1 kmNNE (30°)14.8 km/hMostly Cloudy
1:33 PM28 °C24 °C79 %1008.1 hPa16.1 kmNNE (30°)13 km/hMostly Cloudy
1:55 PM27.8 °C23.2 °C76 %1007.5 hPa16.1 kmNorth (360°)14.8 km/hScattered Clouds
2:55 PM27.3 °C23.6 °C80 %1007.5 hPa16.1 kmNNW (340°)13 km/hScattered Clouds
3:55 PM28.8 °C24 °C75 %1007.5 hPa16.1 kmNorth (360°)16.7 km/hScattered Clouds
4:55 PM27.8 °C24.5 °C82 %1008.5 hPa16.1 kmENE (60°)18.5 km/hClear
5:55 PM27.3 °C24 °C82 %1009.1 hPa16.1 kmENE (60°)20.4 km/hClear
6:55 PM26.6 °C24.2 °C87 %1009.8 hPa16.1 kmENE (70°)13 km/hClear
7:55 PM26.7 °C24.3 °C87 %1010.2 hPa16.1 kmEast (80°)14.8 km/hOvercast
8:05 PM27 °C24 °C84 %1010.2 hPa16.1 kmEast (80°)16.7 km/hOvercast
8:27 PM27 °C24 °C84 %1010.5 hPa16.1 kmEast (80°)18.5 km/hOvercast
8:55 PM26.8 °C23.6 °C83 %1010.8 hPa16.1 kmEast (80°)18.5 km/hOvercast
9:55 PM26.8 °C24 °C85 %1011.2 hPa16.1 kmEast (90°)16.7 km/hMostly Cloudy
10:42 PM27 °C24 °C84 %1011.9 hPa16.1 kmEast (90°)18.5 km/hMostly Cloudy
10:55 PM27.1 °C24.2 °C84 %1011.9 hPa16.1 kmEast (90°)18.5 km/hMostly Cloudy
11:15 PM27 °C24 °C84 %1011.9 hPa16.1 kmEast (90°)20.4 km/hMostly Cloudy
11:16 PM27 °C24 °C84 %1011.9 hPa16.1 kmEast (100°)18.5 km/hMostly Cloudy
11:22 PM27 °C24 °C84 %1011.9 hPa16.1 kmEast (90°)24.1 km/hMostly Cloudy
11:44 PM27 °C24 °C84 %1011.9 hPa16.1 kmEast (90°)18.5 km/hOvercast
11:55 PM27.2 °C24.3 °C84 %1011.5 hPa16.1 kmEast (90°)20.4 km/hOvercast
Hourly data recorded from PGUA, located 0 kilometers away from Tamuning, Guam







STORIES FROM OUR PARTNERS